User: anonymous   Login
Location: Fort Wayne
(41.1310°N, 85.1290°W)
Time: 07:46:12
(UTC-04:00)
Language:

Cosmos 1980 - Orbit

View from above orbital plane
View from above orbital plane
View from above satellite
View from above satellite

Ground track
Ground track

The orbit data is extracted from the following two-line orbital elements,

1 19649U 88102A   16121.53606650 -.00000287  00000-0 -12452-3 0  9996
2 19649  71.0012 211.9132 0007284 235.4415 124.6021 14.14641761416211
Epoch (UTC): 30 April 2016 12:51:56
Eccentricity: 0.0007284
inclination: 71.0012°
perigee height: 838 km
apogee height: 849 km
right ascension of ascending node: 211.9132°
argument of perigee: 235.4415°
revolutions per day: 14.14641761
mean anomaly at epoch: 124.6021°
orbit number at epoch: 41621

The dashed part of the orbit path shows where the satellite is in the earth's shadow,  

DLR